Regional Weather Roundup
Issued by NWS Northern Indiana

Home | Current Version | Previous Version | Graphics & Text | Print | Product List | Glossary On
Versions: 1 2 3 4 5 6 7 8 9 10 11 12 13 14 15 16 17 18 19 20 21 22 23 24 25 26 27 28 29 30 31 32 33 34 35 36 37 38 39 40 41 42 43 44 45 46 47 48 49 50
000
ASUS43 KIWX 011710
RWRIWX

KIWX WEATHER ROUNDUP
NATIONAL WEATHER SERVICE NORTHERN INDIANA
100 PM EDT SUN MAY 01 2016

NOTE: "FAIR" INDICATES FEW OR NO CLOUDS BELOW 12,000 FEET WITH NO
SIGNIFICANT WEATHER AND/OR OBSTRUCTIONS TO VISIBILITY.

* THESE STATIONS ARE NOT UNDER NWS QUALITY CONTROL. THEY ALSO MAY NOT
  REPORT WEATHER SUCH AS PRECIPITATION OR FOG.

INZ001>027-011800-
NORTHERN INDIANA

CITY           SKY/WX    TMP DP  RH WIND       PRES   REMARKS
GARY*          CLOUDY    48  48 100 NE12      29.99  FOG
VALPARAISO     CLOUDY    56  50  80 N6        29.97F
MICHIGAN CITY* CLOUDY    54  54 100 N6        29.98F
LAPORTE*       CLOUDY    56  55  99 N5        29.97F
KNOX*          CLOUDY    52  52 100 NE8       29.96F
SOUTH BEND     CLOUDY    55  50  83 NE6       29.98R
ELKHART*       CLOUDY    54  54 100 MISG      29.98R
GOSHEN         CLOUDY    53  50  89 N8        29.96S FOG
MONTICELLO*    CLOUDY    56  52  88 N5        29.95S
LOGANSPORT*    CLOUDY    55  55 100 N3        29.96S FOG
ROCHESTER*     CLOUDY    57  55  94 CALM      29.96S
ANGOLA*        CLOUDY    52  45  76 N5        29.96S
FORT WAYNE     CLOUDY    57  54  89 VRB3      29.96F
HUNTINGTON*    CLOUDY   N/A N/A N/A NE3       29.95S HAZE
PERU/GRISSOM   CLOUDY    60  60 100 N5        29.94S
MARION*        CLOUDY    63  58  84 CALM      29.95S

$$
INZ028>050-011800-
CENTRAL INDIANA

CITY           SKY/WX    TMP DP  RH WIND       PRES   REMARKS
LAFAYETTE      CLOUDY    59  55  87 NE3       29.95R
KOKOMO*        CLOUDY    64  57  77 S5        29.94S
MUNCIE*        PTSUNNY   70  55  59 W6        29.93F
INDIANAPOLIS   MOSUNNY   71  56  58 CALM      29.92S

$$
MIZ043>046-050>051-056>058-064>065-071>073-077>080-011800-
SOUTHWEST LOWER MICHIGAN

CITY           SKY/WX    TMP DP  RH WIND       PRES   REMARKS
BATTLE CREEK   CLOUDY    49  46  90 NE9       29.99S
BENTON HARBOR  CLOUDY    52  47  83 VRB5      29.98S
COLDWATER*     CLOUDY    51  50  98 NE7       29.97F FOG
HILLSDALE*     CLOUDY    50  50 100 NE3       29.97S FOG
HOLLAND        CLOUDY    50  46  86 NE10G17   30.00F
GRAND RAPIDS   CLOUDY    50  46  86 NE15      30.01S
KALAMAZOO      CLOUDY    50  46  86 NE8       29.98F
STURGIS*       CLOUDY    50  49  95 NE8       29.97R FOG
THREE RIVERS*  CLOUDY    50  49  97 NE6       29.98S

$$
OHZ001>008-015>018-024>025-011800-
NORTHWEST OHIO

CITY           SKY/WX    TMP DP  RH WIND       PRES   REMARKS
WAUSEON*         N/A     54 N/A N/A NE6       29.97S FOG
DEFIANCE       CLOUDY    56  52  86 N6        29.97S FOG
FINDLAY        CLOUDY    63  55  75 N7        29.94S
TOLEDO EXPRESS CLOUDY    53  51  93 NE3       29.97R FOG
TOLEDO METCALF CLOUDY    54  50  86 NE7       29.98R
LIMA           PTSUNNY   67  62  84 VRB3      29.93F

$$
AND FOR LAKE MICHIGAN COASTAL AND OPEN LAKE BUOY OBSERVATIONS

STATION/POSITION TEMP    WIND        PRES    VSBY  WAVE
                 AIR SEA DIR/SP/G                  HT/PER
                 (F)     (DEG/KT/KT) (MB)    (MI)  (FT/S)
CALUMET HARBOR    44     350/  8/ 12 1015.3R
MICHIGAN CITY     45      10/ 10/ 11   N/A
BURNS HARBOR      45      40/  9/ 15 1016.3R
SAINT JOSEPH      50     350/  7/  9 1015.6F
SOUTH LAKE BUOY   42 40   40/ 10/ 12 1016.5R         3/ 5
4 MI NW BRIDGMAN  47 48                N/A           2/ 4

$$
&&




USA.gov is the U.S. government's official web portal to all federal, state and local government web resources and services.